STARLINK-34110, 63811

Orbit data source: Space-Track

STARLINK-34110, 63811 is a payload satellite owned by SpaceX/Seattle (US) in LEO that was launched on Sun, 04 May 2025 UTC via an FALCON 9 launch vehicle from the Air Force Eastern Test Range (AFETR). Payload-class satellites include a variety of spacecraft equipped with specific instruments for various scientific and technological missions. These include communications satellites like Starlink; space stations such as the ISS; scientific satellites like the Hubble; Earth observation satellites from companies like Planet Labs, Umbra, and HawkEye 360; GPS; miniature CubeSats for education and research; and military/defense satellites.

Loading next visibility...
Identifier
63811, 2025-092H
Orbit
LEO
Country
Flag of USUS
Related business
Manufacturer
SpaceX/Seattle
Mission
Operational Commercial Communications
Bus & Motor
STARLINK V2MO, Unknown motor
Mass
575 kg wet, ~530 kg dry
Launch date (UTC)
2025-05-04 (5 months ago)
Launch vehicle
FALCON 9
Launch site
Air Force Eastern Test Range (AFETR)
Object type
Payload
Rocket body
Debris
Shape & HBR
Box + 1 Pan, 14.5 m
Radar Cross Section
41.120 m², Large (>1 m²)

Expand to show TLE details & history
Last TLE update: 17 hours ago

TLE from 17 hours ago
0 STARLINK-34110
1 63811U 25092H   25260.49098716  .00022103  00000-0  81046-3 0  9996
2 63811  43.0064  70.8978 0004848 282.5935  77.4375 15.27566966 22173
Epoch: 2025-09-17T11:47Z
TLE epoch observation values (Epoch: 2025-09-17T11:47:01.29Z)
Latitude
0.00001°
Longitude
-102.52374°
Altitude
482.142 km
Speed
7.627 km/s
True Right ascension
04h 43m 35s
True Declination
0° 00' 00"
Sunlit
Object was in daylight at epoch
Visualization orbit readout
Latitude
Unknown
Longitude
Unknown
Altitude
Unknown
Speed
Unknown
Apparent Right ascension
Unknown
Apparent Declination
Unknown
Sunlit
N/A
Visualization observer readout
Local Sidereal Time
21:59:23
Azimuth
Unknown
Elevation
Unknown
Doppler factor
Unknown
Orbital elements
Apogee altitude
488.359 km
Perigee altitude
481.705 km
Semi-major axis
6,863.169 km
Eccentricity
0.00048
Inclination
43.0064°
RAAN
70.8978°
Arg. of periapsis
282.5935°
True anomaly
77.49173°
Mean anomaly
77.4375°
Eccentric anomaly
77.46461°
Mean motion
3.8173 °/min
Orbital period
94.31 mins
BSTAR
0.00081046
Loading maneuver chart data...
Computing Atmospheric mass density...
Loading historical data...
Loading historical data...
Loading historical data...
Loading historical data...
Loading historical data...
Loading historical data...
Loading historical data...

Documentation

Showing up to 5 results
|